When you browse on this site, cookies collect data to enhance your experience and personalize the content and advertising you see.
Visit our Privacy Policy to learn more. By continuing to use the site, you agree to this use of cookies and data.
  • în România
  • Lista ţărilor
  • Pe 7 zile
  • Temperatura apei
  • Hartă satelitară
  • Meteo pe hartă
  • Widget-uri
  • user-avatar
    Intrare

    Meteo pe oră la Veszprem

    Astăzi, 18 Ianuarie, Vineri

    Timp Temperatura Precipitaţii Vânt Presiune Umiditate
    00:00 +4°C° 0.9 mm 3 m/s 735 mmHg 91%
    01:00 +4°C° 0 mm 2 m/s 735 mmHg 95%
    02:00 +4°C° 2.3 mm 2 m/s 735 mmHg 91%
    03:00 +4°C° 2.3 mm 2 m/s 735 mmHg 86%
    04:00 +4°C° 2.3 mm 2 m/s 735 mmHg 82%
    05:00 +3°C° 0.6 mm 3 m/s 735 mmHg 81%
    06:00 +3°C° 0.6 mm 4 m/s 736 mmHg 80%
    07:00 +1°C° 0 mm 4 m/s 736 mmHg 78%
    08:00 +1°C° 0.2 mm 4 m/s 737 mmHg 78%
    09:00 +1°C° 0.2 mm 4 m/s 737 mmHg 78%
    10:00 +1°C° 0.2 mm 5 m/s 738 mmHg 78%
    11:00 +1°C° 0.1 mm 5 m/s 738 mmHg 77%
    12:00 +1°C° 0.1 mm 5 m/s 739 mmHg 75%
    13:00 +1°C° 0.1 mm 5 m/s 739 mmHg 74%
    14:00 +1°C° 0 mm 5 m/s 740 mmHg 74%
    15:00 +1°C° 0 mm 4 m/s 740 mmHg 73%
    16:00 +1°C° 0 mm 3 m/s 740 mmHg 73%
    17:00 +1°C° 0 mm 3 m/s 741 mmHg 74%
    18:00 0°C° 0 mm 3 m/s 741 mmHg 75%
    19:00 -1°C° 0 mm 3 m/s 741 mmHg 76%
    20:00 -1°C° 0 mm 3 m/s 742 mmHg 77%
    21:00 -2°C° 0 mm 3 m/s 742 mmHg 77%
    22:00 -2°C° 0 mm 3 m/s 743 mmHg 78%
    23:00 -3°C° 0 mm 2 m/s 743 mmHg 78%

    Mâine, 19 Ianuarie, Sâmbătă

    Timp Temperatura Precipitaţii Vânt Presiune Umiditate
    00:00 -3°C° 0 mm 2 m/s 743 mmHg 78%
    01:00 -3°C° 0 mm 2 m/s 743 mmHg 78%
    02:00 -3°C° 0 mm 2 m/s 743 mmHg 79%
    03:00 -3°C° 0 mm 2 m/s 743 mmHg 79%
    04:00 -1°C° 0 mm 1 m/s 743 mmHg 79%
    05:00 -1°C° 0 mm 1 m/s 743 mmHg 79%
    06:00 -2°C° 0 mm 1 m/s 743 mmHg 80%
    07:00 -2°C° 0 mm 1 m/s 743 mmHg 80%
    08:00 -3°C° 0 mm 2 m/s 743 mmHg 77%
    09:00 -2°C° 0 mm 2 m/s 744 mmHg 74%
    10:00 -1°C° 0 mm 3 m/s 744 mmHg 71%
    11:00 0°C° 0 mm 3 m/s 743 mmHg 68%
    12:00 0°C° 0 mm 3 m/s 743 mmHg 65%
    13:00 +1°C° 0 mm 3 m/s 743 mmHg 62%
    14:00 0°C° 0 mm 3 m/s 742 mmHg 64%
    15:00 0°C° 0 mm 3 m/s 742 mmHg 66%
    16:00 0°C° 0 mm 3 m/s 742 mmHg 67%
    17:00 -1°C° 0 mm 3 m/s 742 mmHg 69%
    18:00 -1°C° 0 mm 3 m/s 741 mmHg 70%
    19:00 -1°C° 0 mm 3 m/s 741 mmHg 71%
    20:00 -2°C° 0.1 mm 3 m/s 741 mmHg 73%
    21:00 -2°C° 0.1 mm 3 m/s 741 mmHg 76%
    22:00 -2°C° 0.1 mm 3 m/s 741 mmHg 79%
    23:00 -4°C° 0.2 mm 3 m/s 740 mmHg 82%

    Poimâine, 20 Ianuarie, Duminică

    Timp Temperatura Precipitaţii Vânt Presiune Umiditate
    00:00 -4°C° 0.2 mm 3 m/s 740 mmHg 86%
    01:00 -4°C° 0.2 mm 3 m/s 740 mmHg 89%
    02:00 -4°C° 0.1 mm 3 m/s 740 mmHg 90%
    03:00 -3°C° 0.1 mm 2 m/s 739 mmHg 91%
    04:00 -3°C° 0.1 mm 2 m/s 739 mmHg 91%
    05:00 -3°C° 0.1 mm 2 m/s 739 mmHg 92%
    06:00 -1°C° 0.1 mm 1 m/s 739 mmHg 92%
    07:00 -1°C° 0.1 mm 1 m/s 739 mmHg 92%
    08:00 0°C° 0 mm 1 m/s 739 mmHg 90%
    09:00 0°C° 0 mm 1 m/s 739 mmHg 89%
    10:00 0°C° 0 mm 1 m/s 739 mmHg 87%
    11:00 +1°C° 0 mm 1 m/s 739 mmHg 85%
    12:00 +1°C° 0 mm 1 m/s 739 mmHg 82%
    13:00 +2°C° 0 mm 1 m/s 739 mmHg 80%
    14:00 +1°C° 0 mm 2 m/s 739 mmHg 81%
    15:00 -1°C° 0 mm 2 m/s 739 mmHg 82%
    16:00 -1°C° 0 mm 2 m/s 739 mmHg 83%
    17:00 -1°C° 0 mm 2 m/s 739 mmHg 86%
    18:00 -2°C° 0 mm 2 m/s 740 mmHg 88%
    19:00 -3°C° 0 mm 2 m/s 740 mmHg 91%
    20:00 -3°C° 0 mm 2 m/s 740 mmHg 91%
    21:00 -3°C° 0 mm 2 m/s 741 mmHg 91%
    22:00 -4°C° 0 mm 2 m/s 741 mmHg 91%
    23:00 -4°C° 0 mm 2 m/s 741 mmHg 90%

    21 Ianuarie, Luni

    Timp Temperatura Precipitaţii Vânt Presiune Umiditate
    00:00 -4°C° 0 mm 2 m/s 742 mmHg 90%
    01:00 -5°C° 0 mm 3 m/s 742 mmHg 89%
    02:00 -4°C° 0 mm 2 m/s 742 mmHg 88%
    03:00 -4°C° 0 mm 2 m/s 742 mmHg 87%
    04:00 -4°C° 0 mm 2 m/s 742 mmHg 86%
    05:00 -5°C° 0 mm 2 m/s 743 mmHg 85%
    06:00 -5°C° 0 mm 2 m/s 743 mmHg 85%
    07:00 -5°C° 0 mm 2 m/s 744 mmHg 84%
    08:00 -4°C° 0 mm 2 m/s 744 mmHg 79%
    09:00 -3°C° 0 mm 2 m/s 744 mmHg 73%
    10:00 -3°C° 0 mm 2 m/s 745 mmHg 68%
    11:00 -2°C° 0 mm 2 m/s 745 mmHg 66%
    12:00 -1°C° 0 mm 2 m/s 745 mmHg 64%
    13:00 +1°C° 0 mm 1 m/s 745 mmHg 62%
    14:00 +1°C° 0 mm 1 m/s 745 mmHg 66%
    15:00 +1°C° 0 mm 1 m/s 745 mmHg 69%
    16:00 0°C° 0 mm 1 m/s 745 mmHg 72%
    17:00 0°C° 0 mm 1 m/s 745 mmHg 74%
    18:00 -1°C° 0 mm 1 m/s 745 mmHg 76%
    19:00 -2°C° 0 mm 0 m/s 745 mmHg 78%
    20:00 -3°C° 0 mm 0 m/s 746 mmHg 78%
    21:00 -3°C° 0 mm 0 m/s 746 mmHg 79%
    22:00 -3°C° 0 mm 0 m/s 746 mmHg 79%
    23:00 -3°C° 0 mm 0 m/s 745 mmHg 79%

    22 Ianuarie, Marţi

    Timp Temperatura Precipitaţii Vânt Presiune Umiditate
    00:00 -3°C° 0 mm 0 m/s 745 mmHg 79%
    01:00 -3°C° 0 mm 0 m/s 745 mmHg 79%
    02:00 -3°C° 0 mm 0 m/s 744 mmHg 79%
    03:00 -4°C° 0 mm 0 m/s 744 mmHg 78%
    04:00 -4°C° 0 mm 0 m/s 744 mmHg 78%
    05:00 -3°C° 0 mm 1 m/s 743 mmHg 78%
    06:00 -3°C° 0 mm 1 m/s 743 mmHg 78%
    07:00 -3°C° 0 mm 1 m/s 742 mmHg 78%
    08:00 -3°C° 0 mm 1 m/s 742 mmHg 76%
    09:00 -4°C° 0 mm 2 m/s 742 mmHg 73%
    10:00 -3°C° 0 mm 2 m/s 742 mmHg 71%
    11:00 -2°C° 0 mm 2 m/s 741 mmHg 69%
    12:00 -2°C° 0 mm 3 m/s 740 mmHg 67%
    13:00 -1°C° 0 mm 3 m/s 739 mmHg 65%
    14:00 -2°C° 0 mm 3 m/s 738 mmHg 68%
    15:00 -2°C° 0 mm 3 m/s 737 mmHg 70%
    16:00 -2°C° 0 mm 3 m/s 736 mmHg 72%
    17:00 -4°C° 0 mm 3 m/s 735 mmHg 76%
    18:00 -4°C° 0 mm 3 m/s 735 mmHg 81%
    19:00 -4°C° 0 mm 4 m/s 734 mmHg 85%
    20:00 -4°C° 0.3 mm 4 m/s 733 mmHg 87%
    21:00 -4°C° 0.3 mm 4 m/s 733 mmHg 90%
    22:00 -4°C° 0.3 mm 3 m/s 732 mmHg 93%
    23:00 -4°C° 0.3 mm 4 m/s 731 mmHg 93%

    23 Ianuarie, Miercuri

    Timp Temperatura Precipitaţii Vânt Presiune Umiditate
    00:00 -4°C° 0.3 mm 4 m/s 730 mmHg 93%
    01:00 -4°C° 0.3 mm 4 m/s 729 mmHg 94%
    02:00 -4°C° 0.3 mm 4 m/s 729 mmHg 94%
    03:00 -4°C° 0.3 mm 3 m/s 728 mmHg 95%
    04:00 -4°C° 0.3 mm 3 m/s 727 mmHg 95%
    05:00 -4°C° 0.2 mm 3 m/s 726 mmHg 95%
    06:00 -4°C° 0.2 mm 3 m/s 726 mmHg 95%
    07:00 -4°C° 0.2 mm 3 m/s 725 mmHg 95%
    08:00 -2°C° 0.3 mm 2 m/s 725 mmHg 95%
    09:00 -2°C° 0.3 mm 2 m/s 724 mmHg 95%
    10:00 -2°C° 0.3 mm 2 m/s 724 mmHg 95%
    11:00 -2°C° 0.6 mm 2 m/s 723 mmHg 95%
    12:00 -1°C° 0.6 mm 2 m/s 722 mmHg 95%
    13:00 -1°C° 0.6 mm 2 m/s 721 mmHg 96%
    14:00 -1°C° 1.4 mm 2 m/s 721 mmHg 96%
    15:00 -1°C° 1.4 mm 3 m/s 720 mmHg 96%
    16:00 -2°C° 1.4 mm 4 m/s 719 mmHg 96%
    17:00 -2°C° 0.1 mm 4 m/s 719 mmHg 97%
    18:00 -2°C° 0.1 mm 4 m/s 719 mmHg 97%
    19:00 -2°C° 0.1 mm 4 m/s 718 mmHg 97%
    20:00 -1°C° 0.2 mm 4 m/s 718 mmHg 98%
    21:00 -1°C° 0.2 mm 4 m/s 717 mmHg 98%
    22:00 -1°C° 0.2 mm 4 m/s 717 mmHg 98%
    23:00 0°C° 1.4 mm 3 m/s 716 mmHg 98%
    Arată mai mult